Weather History for Vc Bird International Airport Antigua, Antigua

Change the Weather History Date:

Saturday, March 2, 2013

  Actual Average Record
Temperature  
Mean Temperature 76 °F -  
Max Temperature 85 °F 81 °F - ()
Min Temperature 66 °F 72 °F - ()
Cooling Degree Days 10    
Growing Degree Days 26 (Base 50)    
Moisture  
Dew Point 67 °F    
Average Humidity 73    
Maximum Humidity 88    
Minimum Humidity 48    
Precipitation  
Precipitation 0.00 in - - ()
Sea Level Pressure  
Sea Level Pressure 29.94 in    
Wind  
Wind Speed 3 mph ()    
Max Wind Speed 9 mph    
Max Gust Speed -    
Visibility 9.4 miles    
Events      
T = Trace of Precipitation, MM = Missing Value Source: Averaged Metar Reports

Daily Weather History Graph

Daily Weather History Graph

Search for Another Location

Airport:

Trip Planner

Search our weather history database for the weather conditions in past years. The results will help you decide how hot, cold, wet, or windy it might be!

Date:

Astronomy

Mar. 02, 2013 Rise Set
Actual Time 6:24 AM AST 6:14 PM AST
Civil Twilight 6:02 AM AST 6:35 PM AST
Nautical Twilight 5:37 AM AST 7:01 PM AST
Astronomical Twilight 5:12 AM AST 7:26 PM AST
Moon 10:53 PM AST (3/2) 9:40 AM AST (3/2)
Length of Visible Light 12h 33m
Length of Day
11h 49m
Waning Gibbous, 74% of the Moon is Illuminated
Mar 2
Waning Gibbous
Mar 4
Last Quarter
Mar 11
New
Mar 19
First Quarter
Mar 27
Full

Hourly Weather History & Observations

Time (AST) Temp. Heat Index Dew Point Humidity Pressure Visibility Wind Dir Wind Speed Gust Speed Precip Events Conditions
12:00 AM 69.8 °F - 64.4 °F 83% 29.95 in 6.2 mi Variable 1.2 mph - N/A   Partly Cloudy
1:00 AM 69.8 °F - 64.4 °F 83% 29.95 in 6.2 mi Calm Calm - N/A   Partly Cloudy
2:00 AM 69 °F - 64 °F 79% 29.92 in 19 mi 1.2 mph - -   Scattered Clouds
2:00 AM 69.8 °F - 64.4 °F 83% 29.92 in 6.2 mi Variable 1.2 mph - N/A   Partly Cloudy
3:00 AM 69.8 °F - 64.4 °F 83% 29.89 in 6.2 mi Calm Calm - N/A   Partly Cloudy
4:00 AM 69.8 °F - 64.4 °F 83% 29.89 in 6.2 mi Calm Calm - N/A   Partly Cloudy
5:00 AM 69 °F - 65 °F 81% 29.91 in 19 mi 1.2 mph - -   Scattered Clouds
5:00 AM 69.8 °F - 64.4 °F 83% 29.89 in 6.2 mi Variable 1.2 mph - N/A   Partly Cloudy
6:00 AM 68.0 °F - 64.4 °F 88% 29.92 in 6.2 mi Variable 1.2 mph - N/A   Scattered Clouds
7:00 AM 69.8 °F - 64.4 °F 83% 29.92 in 6.2 mi Variable 1.2 mph - N/A   Partly Cloudy
8:00 AM 77 °F - 67 °F 65% 29.95 in 19 mi SE 3.5 mph - -   Scattered Clouds
8:00 AM 77.0 °F - 68.0 °F 74% 29.95 in 6.2 mi SE 3.5 mph - N/A   Partly Cloudy
9:00 AM 80.6 °F 82.7 °F 66.2 °F 61% 29.95 in 6.2 mi ESE 4.6 mph - N/A   Scattered Clouds
10:00 AM 82.4 °F 85.4 °F 68.0 °F 62% 29.98 in 6.2 mi East 6.9 mph - N/A   Scattered Clouds
11:00 AM 80 °F - 67 °F 56% 29.99 in 19 mi East 5.8 mph - -   Partly Cloudy
11:00 AM 80.6 °F 82.7 °F 66.2 °F 61% 29.98 in 6.2 mi East 5.8 mph - N/A   Scattered Clouds
12:00 PM 82.4 °F 84.6 °F 66.2 °F 58% 29.98 in 6.2 mi East 5.8 mph - N/A   Partly Cloudy
1:00 PM 86.0 °F 87.3 °F 64.4 °F 48% 29.95 in 6.2 mi SSE 8.1 mph - N/A   Scattered Clouds
2:00 PM 83 °F - 68 °F 51% 29.94 in 19 mi ESE 8.1 mph - -   Partly Cloudy
2:00 PM 84.2 °F 87.3 °F 68.0 °F 58% 29.92 in 6.2 mi ESE 8.1 mph - N/A   Scattered Clouds
3:00 PM 80.6 °F 83.9 °F 69.8 °F 70% 29.92 in 6.2 mi East 9.2 mph - N/A   Partly Cloudy
4:00 PM 78.8 °F - 68.0 °F 69% 29.92 in 6.2 mi ESE 5.8 mph - N/A   Partly Cloudy
5:00 PM 79 °F - 69 °F 63% 29.92 in 19 mi ESE 5.8 mph - -   Scattered Clouds
5:00 PM 78.8 °F - 68.0 °F 69% 29.92 in 6.2 mi ESE 5.8 mph - N/A   Partly Cloudy
6:00 PM 77.0 °F - 69.8 °F 78% 29.92 in 6.2 mi SE 4.6 mph - N/A   Mostly Cloudy
7:00 PM 77.0 °F - 69.8 °F 78% 29.92 in 6.2 mi SE 3.5 mph - N/A   Mostly Cloudy
8:00 PM 76 °F - 70 °F 76% 29.96 in 19 mi 2.3 mph - -   Partly Cloudy
8:00 PM 75.2 °F - 69.8 °F 83% 29.95 in 6.2 mi Variable 2.3 mph - N/A   Mostly Cloudy
9:00 PM 75.2 °F - 69.8 °F 83% 29.98 in 6.2 mi Variable 2.3 mph - N/A   Mostly Cloudy
10:00 PM 75.2 °F - 69.8 °F 83% 29.98 in 6.2 mi Calm Calm - N/A   Mostly Cloudy
11:00 PM 75 °F - 70 °F 79% 30.00 in 19 mi 2.3 mph - -   Scattered Clouds
11:00 PM 75.2 °F - 69.8 °F 83% 29.98 in 6.2 mi Variable 2.3 mph - N/A   Mostly Cloudy